Regional Weather Roundup
Issued by NWS

Home | Current Version | Previous Version | Text Only | Print | Product List | Glossary On
Versions: 1 2 3 4 5 6 7 8 9 10 11 12 13 14 15 16 17 18 19 20 21 22 23 24 25 26 27 28 29 30 31 32 33 34 35 36 37 38 39 40 41 42 43 44 45 46 47 48 49 50
253
ASUS43 KTOP 221859
RWRKS

WEATHER ROUNDUP FOR KANSAS
NATIONAL WEATHER SERVICE GOODLAND KS
200 PM CDT SUN APR 22 2018

NOTE:  "FAIR" INDICATES FEW OR NO CLOUDS BELOW 12,000 FEET WITH NO
SIGNIFICANT WEATHER AND/OR OBSTRUCTIONS TO VISIBILITY.

KSZ001>006-013>018-027>032-041>047-222000-
NORTHWEST KANSAS

CITY           SKY/WX    TMP DP  RH WIND       PRES   REMARKS
GOODLAND       CLOUDY    50  36  58 E6        30.20F
HAYS           SUNNY     60  38  43 N13       30.18F
HILL CITY      MOSUNNY   56  41  57 VRB6      30.21F
RUSSELL        PTSUNNY   60  37  42 NE16G22   30.16F
$$

KSZ061>065-074>080-084>089-222000-
SOUTHWEST KANSAS

CITY           SKY/WX    TMP DP  RH WIND       PRES   REMARKS
DODGE CITY     CLOUDY    56  40  55 N14G21    30.17F
GARDEN CITY    CLOUDY    54  38  54 VRB7      30.19F
GREAT BEND     SUNNY     59  40  49 N18       30.16F
LIBERAL        PTSUNNY   55  39  54 NE14G22   30.20F
$$

KSZ066>073-081>083-090>101-222000-
SOUTHEAST KANSAS

CITY           SKY/WX    TMP DP  RH WIND       PRES   REMARKS
CHANUTE        CLOUDY    52  50  93 N12       30.04S
COFFEYVILLE    CLOUDY    53  50  89 N16       30.01F
HUTCHINSON     CLOUDY    59  42  53 N15       30.12F
MEDICINE LODGE   N/A     62  41  46 N23G33    30.10F
NEWTON         CLOUDY    50  44  80 N16       30.12S
PARSONS        CLOUDY    53  51  93 N13       30.02F
WICHITA INTL   CLOUDY    53  43  68 N20       30.10F
WICHITA JABRA  CLOUDY    53  44  71 N18       30.10F
WICHITA MCCONL CLOUDY    52  41  67 N17       30.09F
WINFIELD       CLOUDY    51  45  79 NW18      30.09S
$$

KSZ007>012-019>026-033>040-048>060-102>105-222000-
NORTHEAST KANSAS

CITY           SKY/WX    TMP DP  RH WIND       PRES   REMARKS
CONCORDIA      CLOUDY    58  38  47 N15G26    30.17F
EMPORIA        LGT RAIN  49  46  90 N12       30.10R FOG
LAWRENCE       CLOUDY    64  52  64 NE12G20   30.10F
MANHATTAN      CLOUDY    61  41  47 NE12      30.13F
OLATHE IND     PTSUNNY   61  49  64 NE15G24   30.09F
OLATHE EXE     PTSUNNY   58  47  66 NE18G24   30.09F
SALINA         CLOUDY    59  41  51 N18       30.15F
TOPEKA BILLARD CLOUDY    62  51  67 N12       30.11F
TOPEKA FORBES  CLOUDY    57  50  77 N10       30.10F
$$




USA.gov is the U.S. government's official web portal to all federal, state and local government web resources and services.